[[{"header":{"parameterUnit":"m.s-1","parameterCategory":1,"la1":30.2991,"la2":30.254,"lo1":-89.0895,"lo2":-89.0444,"dy":0.0017,"dx":0.0017,"nx":28,"ny":28,"refTime":"2023-10-08T03:00:00:Z","depth":0,"parameterNumber":2,"parameterNumberName":"U-component_of_WINDS"},"data":[0,0,0,0,0,0,0,0,0,0,0,0,0,0,0,0,0,0,0,0,0,0,0,0,0,0,0,0,0,0,0,0,0,0,0,0,0,0,0,0,0,0,0,0,0,0,0,0,0,0,0,0,0,0,0,0,0,0,-0.0068,-0.0068,0,-0.0081,-0.0081,-0.0081,-0.0074,-0.0074,-0.0074,-0.0073,-0.0087,-0.0088,-0.0088,0,0,0,0,0,0,0,0,0,0,0,0,0,-0.0035,-0.0036,-0.0068,-0.0068,-0.0068,-0.0081,-0.0081,-0.0081,-0.0074,-0.0074,-0.0073,-0.0073,-0.0087,-0.0087,-0.0088,0,0,0,0,0,0,0,0,0,0,0,0,0,-0.0049,-0.0036,-0.0068,-0.0066,-0.0066,-0.0081,-0.0081,-0.0081,-0.0074,-0.0074,-0.0073,-0.0073,-0.0086,-0.0087,-0.0088,-0.0106,0,0,-0.0092,-0.0092,0,0,0,0,0,0,0,0,-0.0048,-0.005,-0.0066,-0.0066,-0.0066,-0.0075,-0.0075,-0.009,-0.0075,-0.0071,-0.0073,-0.0073,-0.0083,-0.0085,-0.0088,-0.0106,-0.0107,-0.0092,-0.0092,-0.0093,-0.0093,0,0,0,0,0,0,0,-0.0047,-0.005,-0.0073,-0.0066,-0.0066,-0.0064,-0.0066,-0.0077,-0.008,-0.0071,-0.0071,-0.0073,-0.0083,-0.0087,-0.0089,-0.0107,-0.0092,-0.0093,-0.0093,-0.0094,-0.0139,-0.0139,0,0,0,0,0,0,-0.0046,-0.0049,-0.0072,-0.0073,-0.0056,-0.0065,-0.0067,-0.0073,-0.008,-0.0081,-0.0073,-0.0072,-0.0086,-0.0087,-0.0089,-0.0109,-0.0093,-0.0094,-0.0094,-0.0138,-0.0139,-0.014,0,0,0,0,0,0,-0.0046,-0.0049,-0.0072,-0.0061,-0.0064,-0.0067,-0.0073,-0.0074,-0.0078,-0.0081,-0.0082,-0.0077,-0.0086,-0.0088,-0.0101,-0.011,-0.0094,-0.0095,-0.0138,-0.0139,-0.0139,-0.015,0,0,0,0,0,0,-0.0045,-0.0048,-0.0055,-0.0061,-0.0064,-0.0084,-0.0074,-0.0074,-0.0079,-0.0078,-0.0085,-0.0085,-0.0085,-0.01,-0.0102,-0.0111,-0.0096,-0.0137,-0.0138,-0.0139,-0.0149,-0.0151,-0.0153,0,0,0,0,0,-0.0044,-0.0058,-0.0056,-0.0059,-0.0073,-0.0085,-0.0087,-0.0086,-0.008,-0.0087,-0.0089,-0.0085,-0.0108,-0.0101,-0.0104,-0.0113,-0.0136,-0.0138,-0.0139,-0.0148,-0.0151,-0.0153,0,0,0,0,0,0,-0.0053,-0.0059,-0.0056,-0.0073,-0.0078,-0.0084,-0.0092,-0.0089,-0.0097,-0.0095,-0.0094,-0.0096,-0.011,-0.0113,-0.0105,-0.013,-0.0121,-0.0123,-0.0128,-0.013,-0.0132,-0.0131,-0.0097,0,0,0,0,0,-0.0057,-0.0067,-0.0071,-0.0085,-0.0088,-0.0089,-0.0095,-0.0094,-0.0099,-0.0102,-0.0105,-0.0111,-0.0119,-0.0125,-0.0133,-0.0149,-0.015,-0.0157,-0.0159,-0.0161,-0.0162,-0.0171,-0.0173,-0.0144,-0.0144,-0.0144,0,0,-0.0066,-0.007,-0.0076,-0.0087,-0.0091,-0.01,-0.0092,-0.0102,-0.0109,-0.0103,-0.0116,-0.0119,-0.0125,-0.014,-0.0147,-0.0143,-0.0171,-0.0162,-0.0164,-0.0164,-0.0172,-0.0175,-0.0178,-0.0145,-0.0145,-0.0145,0,0,-0.0086,-0.009,-0.0102,-0.0106,-0.0112,-0.0113,-0.0116,-0.0122,-0.0123,-0.0136,-0.0132,-0.014,-0.0155,-0.0159,-0.0163,-0.0184,-0.018,-0.0186,-0.0197,-0.0205,-0.0208,-0.021,-0.0217,-0.0219,-0.0188,-0.0188,-0.0188,0,-0.0096,-0.011,-0.0109,-0.0119,-0.0124,-0.0119,-0.0131,-0.0135,-0.0144,-0.0147,-0.0142,-0.016,-0.0164,-0.018,-0.0185,-0.0188,-0.0191,-0.0186,-0.0208,-0.021,-0.0211,-0.0218,-0.0221,-0.0189,-0.0189,-0.0189,-0.0189,0,-0.0121,-0.0131,-0.014,-0.0148,-0.0153,-0.0165,-0.0165,-0.0171,-0.0169,-0.017,-0.0183,-0.0188,-0.0196,-0.02,-0.0198,-0.0215,-0.0212,-0.0208,-0.0199,-0.0215,-0.0221,-0.0224,-0.019,-0.019,-0.0189,-0.0189,0,0,-0.0148,-0.0155,-0.0158,-0.0162,-0.0168,-0.0175,-0.0186,-0.0194,-0.0199,-0.0205,-0.0213,-0.0225,-0.0221,-0.0225,-0.0224,-0.0232,-0.0247,-0.0226,-0.0226,-0.0229,-0.0265,-0.0269,-0.0272,-0.0245,-0.0245,-0.0246,-0.0265,0,-0.0169,-0.0187,-0.0186,-0.0204,-0.0212,-0.0207,-0.0216,-0.0221,-0.0222,-0.0229,-0.0231,-0.0239,-0.0233,-0.0235,-0.0242,-0.0244,-0.0254,-0.0242,-0.0252,-0.0253,-0.0251,-0.0275,-0.0279,-0.0297,-0.0267,-0.0267,-0.0268,0,-0.0195,-0.0201,-0.022,-0.0224,-0.0227,-0.0236,-0.0242,-0.025,-0.0254,-0.0255,-0.0259,-0.0257,-0.0267,-0.0258,-0.0272,-0.0264,-0.0268,-0.027,-0.027,-0.0271,-0.0261,-0.0276,-0.0302,-0.0305,-0.0272,-0.0271,-0.0271,0,-0.0213,-0.0226,-0.0238,-0.0241,-0.0246,-0.0252,-0.0255,-0.0259,-0.0264,-0.027,-0.0272,-0.028,-0.0284,-0.0289,-0.0288,-0.0282,-0.0302,-0.0294,-0.0303,-0.0303,-0.0307,-0.0307,-0.0334,-0.031,-0.031,-0.031,-0.031,0,-0.0236,-0.0247,-0.0246,-0.0254,-0.0266,-0.0264,-0.0276,-0.0278,-0.0282,-0.0289,-0.0285,-0.0293,-0.0291,-0.0298,-0.0298,-0.0309,-0.0311,-0.0311,-0.0311,-0.0312,-0.0312,-0.0314,-0.0313,-0.0311,-0.031,-0.031,-0.031,0,-0.0258,-0.0258,-0.0271,-0.0274,-0.0275,-0.0284,-0.0287,-0.0294,-0.0294,-0.0304,-0.0306,-0.0307,-0.0315,-0.0315,-0.0324,-0.0324,-0.0337,-0.0336,-0.0336,-0.0336,-0.0344,-0.0344,-0.0374,-0.0378,-0.0352,-0.0352,-0.0352,0,-0.0272,-0.0281,-0.0285,-0.0289,-0.0292,-0.03,-0.0304,-0.0303,-0.0308,-0.0313,-0.032,-0.0327,-0.0333,-0.0346,-0.0348,-0.0354,-0.0353,-0.0363,-0.0354,-0.0354,-0.0353,-0.0352,-0.0353,-0.0365,-0.0365,-0.0365,-0.0366,0,-0.0298,-0.0297,-0.0304,-0.031,-0.0316,-0.0321,-0.0326,-0.033,-0.0329,-0.0334,-0.0342,-0.0347,-0.0356,-0.0364,-0.037,-0.0372,-0.0369,-0.0368,-0.0371,-0.0371,-0.0371,-0.0371,-0.0341,-0.0368,-0.0368,-0.0367,-0.0367,-0.0367,-0.0316,-0.0323,-0.0327,-0.0335,-0.0338,-0.0342,-0.0349,-0.035,-0.0356,-0.0363,-0.0362,-0.0371,-0.0375,-0.0383,-0.0386,-0.0392,-0.0389,-0.0392,-0.0393,-0.0394,-0.0395,-0.037,-0.0394,-0.0393,-0.0393,-0.0393,-0.0393,0,-0.0342,-0.0344,-0.035,-0.0357,-0.0362,-0.0358,-0.0363,-0.0368,-0.0376,-0.038,-0.0385,-0.0394,-0.0401,-0.0403,-0.041,-0.0415,-0.0413,-0.0416,-0.0416,-0.0416,-0.0398,-0.0395,-0.0417,-0.0417,-0.0417,-0.0417,-0.0417,-0.0417,-0.0355,-0.0367,-0.0366,-0.0379,-0.0381,-0.0389,-0.0392,-0.0396,-0.0399,-0.0409,-0.0415,-0.0416,-0.0418,-0.0425,-0.0431,-0.0431,-0.0434,-0.0438,-0.0437,-0.042,-0.0418,-0.0415,-0.0413,-0.0438,-0.0438,-0.0455,-0.0455,-0.0455]},{"header":{"parameterUnit":"m.s-1","parameterCategory":1,"la1":30.2991,"la2":30.254,"lo1":-89.0895,"lo2":-89.0444,"dy":0.0017,"dx":0.0017,"nx":28,"ny":28,"refTime":"2023-10-08T03:00:00:Z","depth":0,"parameterNumber":3,"parameterNumberName":"V-component_of_WINDS"},"data":[0,0,0,0,0,0,0,0,0,0,0,0,0,0,0,0,0,0,0,0,0,0,0,0,0,0,0,0,0,0,0,0,0,0,0,0,0,0,0,0,0,0,0,0,0,0,0,0,0,0,0,0,0,0,0,0,0,0,-6.8948,-6.8949,0,-6.9059,-6.906,-6.9061,-6.8941,-6.8937,-6.8932,-6.8928,-6.9035,-6.9042,-6.9049,0,0,0,0,0,0,0,0,0,0,0,0,0,-6.8626,-6.8632,-6.8947,-6.8949,-6.895,-6.9058,-6.906,-6.9061,-6.8942,-6.8937,-6.8931,-6.8926,-6.9033,-6.9042,-6.905,0,0,0,0,0,0,0,0,0,0,0,0,0,-6.8754,-6.8634,-6.8947,-6.8904,-6.8901,-6.9058,-6.906,-6.9062,-6.8943,-6.8936,-6.893,-6.8923,-6.903,-6.9041,-6.9051,-6.9254,0,0,-6.9084,-6.9089,0,0,0,0,0,0,0,0,-6.8747,-6.8766,-6.8909,-6.8907,-6.8904,-6.8979,-6.8986,-6.9126,-6.8945,-6.8927,-6.8928,-6.892,-6.9022,-6.9033,-6.9068,-6.9259,-6.9264,-6.9085,-6.9091,-6.9096,-6.9099,0,0,0,0,0,0,0,-6.8738,-6.876,-6.8991,-6.8911,-6.8908,-6.8877,-6.8887,-6.9012,-6.9011,-6.8928,-6.892,-6.8935,-6.9019,-6.9059,-6.907,-6.9266,-6.9085,-6.9094,-6.9101,-6.9105,-6.9628,-6.9635,0,0,0,0,0,0,-6.8735,-6.8754,-6.8988,-6.8994,-6.8807,-6.8888,-6.89,-6.8962,-6.901,-6.9011,-6.8941,-6.8929,-6.9044,-6.9058,-6.9073,-6.9314,-6.9096,-6.9106,-6.9112,-6.962,-6.9629,-6.9637,0,0,0,0,0,0,-6.8728,-6.8757,-6.8983,-6.8872,-6.8898,-6.8901,-6.8972,-6.8968,-6.9007,-6.9019,-6.9018,-6.8981,-6.9039,-6.9058,-6.9211,-6.9316,-6.9111,-6.912,-6.9611,-6.9623,-6.9633,-6.9797,0,0,0,0,0,0,-6.872,-6.8755,-6.8834,-6.8875,-6.8905,-6.9121,-6.8978,-6.8975,-6.9026,-6.9012,-6.9057,-6.9058,-6.9035,-6.9195,-6.9221,-6.9327,-6.9129,-6.9602,-6.9617,-6.963,-6.9783,-6.9813,-6.9839,0,0,0,0,0,-6.8709,-6.8875,-6.8839,-6.8868,-6.9004,-6.9127,-6.9144,-6.9116,-6.9036,-6.9114,-6.9121,-6.9056,-6.9301,-6.9212,-6.924,-6.9351,-6.9595,-6.9612,-6.9629,-6.977,-6.9807,-6.9838,0,0,0,0,0,0,-6.8844,-6.8879,-6.884,-6.9024,-6.9074,-6.9107,-6.9205,-6.9156,-6.9228,-6.9212,-6.9172,-6.9183,-6.9345,-6.9362,-6.9263,-6.9549,-6.9434,-6.9458,-6.9532,-6.9567,-6.9595,-6.9587,-6.9138,0,0,0,0,0,-6.8896,-6.8995,-6.902,-6.918,-6.9207,-6.9202,-6.9255,-6.9229,-6.9278,-6.9298,-6.9317,-6.9365,-6.9452,-6.9511,-6.9592,-6.9785,-6.9792,-6.9874,-6.9902,-6.9926,-6.9946,-7.0048,-7.0085,-6.9693,-6.9693,-6.9692,0,0,-6.9003,-6.9034,-6.9099,-6.9208,-6.9243,-6.9345,-6.922,-6.9333,-6.9408,-6.9314,-6.946,-6.9475,-6.9526,-6.97,-6.9777,-6.972,-7.0056,-6.9947,-6.9965,-6.9973,-7.007,-7.0107,-7.014,-6.9704,-6.9702,-6.97,0,0,-6.925,-6.9285,-6.9422,-6.9461,-6.9517,-6.9512,-6.9545,-6.9586,-6.9594,-6.9739,-6.9671,-6.9758,-6.991,-6.9949,-6.9989,-7.0251,-7.0194,-7.0279,-7.0425,-7.0526,-7.0557,-7.0584,-7.0677,-7.0711,-7.0299,-7.0299,-7.03,0,-6.9376,-6.9529,-6.9498,-6.9617,-6.9666,-6.9588,-6.9726,-6.9764,-6.9843,-6.9878,-6.9813,-7.0002,-7.003,-7.0212,-7.0276,-7.0311,-7.0346,-7.0273,-7.0555,-7.0582,-7.0607,-7.0695,-7.073,-7.0309,-7.0308,-7.0307,-7.0306,0,-6.968,-6.9787,-6.9891,-6.9972,-7.0032,-7.016,-7.0147,-7.0212,-7.0181,-7.0183,-7.0331,-7.0363,-7.045,-7.049,-7.0461,-7.0668,-7.063,-7.0562,-7.0445,-7.0655,-7.0737,-7.0771,-7.0324,-7.032,-7.0317,-7.0315,0,0,-7.0015,-7.0078,-7.0117,-7.0152,-7.0209,-7.029,-7.0413,-7.05,-7.0556,-7.0612,-7.0714,-7.0844,-7.0781,-7.0826,-7.08,-7.0888,-7.1094,-7.0808,-7.0808,-7.0859,-7.1323,-7.1375,-7.1415,-7.1056,-7.1062,-7.1067,-7.1318,0,-7.0264,-7.048,-7.0456,-7.0661,-7.0759,-7.0687,-7.0794,-7.0839,-7.0844,-7.0926,-7.093,-7.1023,-7.0933,-7.0959,-7.1044,-7.1051,-7.1186,-7.1032,-7.1148,-7.1153,-7.1138,-7.1458,-7.1513,-7.1748,-7.135,-7.1356,-7.136,0,-7.0582,-7.0653,-7.087,-7.0911,-7.0951,-7.1048,-7.1125,-7.1205,-7.1254,-7.1251,-7.1303,-7.1261,-7.1382,-7.1264,-7.143,-7.1327,-7.1372,-7.1383,-7.1391,-7.1401,-7.1269,-7.1475,-7.1823,-7.1858,-7.141,-7.1406,-7.1403,0,-7.0805,-7.0954,-7.1103,-7.1135,-7.1187,-7.1257,-7.1282,-7.1324,-7.1378,-7.1444,-7.1478,-7.1558,-7.1601,-7.1662,-7.1642,-7.1558,-7.1813,-7.1693,-7.1812,-7.1813,-7.1869,-7.1866,-7.2229,-7.19,-7.1899,-7.1898,-7.1898,0,-7.1085,-7.122,-7.1203,-7.1295,-7.1443,-7.1413,-7.156,-7.1575,-7.1614,-7.1705,-7.1646,-7.1733,-7.1702,-7.1786,-7.1771,-7.191,-7.193,-7.193,-7.1924,-7.1936,-7.1936,-7.1965,-7.1948,-7.1908,-7.1906,-7.1904,-7.1902,0,-7.1358,-7.1353,-7.151,-7.1547,-7.156,-7.1668,-7.1698,-7.1783,-7.1783,-7.19,-7.1925,-7.1926,-7.2022,-7.2008,-7.2115,-7.2104,-7.2278,-7.2253,-7.2263,-7.2257,-7.2377,-7.2366,-7.2771,-7.2822,-7.2461,-7.2464,-7.2467,0,-7.1537,-7.1639,-7.1688,-7.1746,-7.1777,-7.1871,-7.1926,-7.19,-7.1959,-7.2022,-7.21,-7.2191,-7.2263,-7.2419,-7.2428,-7.2509,-7.2484,-7.2621,-7.2496,-7.2504,-7.2486,-7.248,-7.249,-7.2645,-7.2649,-7.2653,-7.2655,0,-7.1855,-7.1847,-7.193,-7.2012,-7.208,-7.2143,-7.2199,-7.225,-7.2228,-7.2298,-7.2397,-7.2453,-7.2562,-7.2653,-7.2729,-7.2751,-7.2701,-7.2695,-7.2727,-7.2739,-7.274,-7.2741,-7.233,-7.2685,-7.2682,-7.268,-7.2678,-7.2677,-7.2086,-7.2174,-7.2222,-7.2316,-7.2356,-7.2411,-7.2492,-7.2504,-7.2587,-7.2676,-7.2654,-7.2766,-7.2811,-7.2909,-7.294,-7.3025,-7.2974,-7.3021,-7.3032,-7.3044,-7.3059,-7.2728,-7.3039,-7.3038,-7.3037,-7.3036,-7.3035,0,-7.24,-7.2428,-7.2515,-7.2597,-7.2671,-7.2618,-7.2678,-7.2742,-7.2842,-7.289,-7.2962,-7.3075,-7.3163,-7.3179,-7.3262,-7.3328,-7.3306,-7.3351,-7.3345,-7.3351,-7.3099,-7.3063,-7.3367,-7.3367,-7.3367,-7.3366,-7.3366,-7.3366,-7.2572,-7.2718,-7.2717,-7.2881,-7.2907,-7.3018,-7.3056,-7.3106,-7.3144,-7.3274,-7.3348,-7.3358,-7.3392,-7.3478,-7.3556,-7.3558,-7.3591,-7.3645,-7.3638,-7.3402,-7.3369,-7.3337,-7.3303,-7.3652,-7.3653,-7.3882,-7.3885,-7.3886]}]]